TQQ201 OMDB-OOMS

Flight info

Callsign TQQ201
Flight time 0h 48m
Altitude 25000
Route ANVIX L223 TARDI N629 MUSUK T511 MCT
Aircraft B738/M-SDE2E3FGHIRWXY/LB1

Departure

Time 2026-05-06 16:57
Airport Dubai International Airport (OMDB)

Arrival

Time 2026-05-06 17:45
Airport Muscat International Airport (OOMS)
Time Latitude Longitude Altitude Speed Heading
2026-05-06 16:30 25.25954 55.34349 19 ft 0 kts 211°
2026-05-06 16:39 25.25955 55.34349 19 ft 1 kts 211°
2026-05-06 16:40 25.25967 55.34357 19 ft 3 kts 211°
2026-05-06 16:40 25.25984 55.34369 20 ft 3 kts 211°
2026-05-06 16:40 25.26002 55.34381 19 ft 3 kts 211°
2026-05-06 16:40 25.26018 55.34391 20 ft 3 kts 196°
2026-05-06 16:41 25.26036 55.34393 20 ft 3 kts 159°
2026-05-06 16:41 25.26052 55.34381 21 ft 3 kts 127°
2026-05-06 16:41 25.26058 55.34371 22 ft 0 kts 121°
2026-05-06 16:44 25.26055 55.34376 22 ft 2 kts 121°
2026-05-06 16:44 25.26041 55.34402 20 ft 6 kts 121°
2026-05-06 16:45 25.26013 55.34452 19 ft 10 kts 121°
2026-05-06 16:45 25.25971 55.34526 19 ft 13 kts 125°
2026-05-06 16:45 25.25921 55.34618 19 ft 15 kts 121°
2026-05-06 16:45 25.25863 55.34724 19 ft 16 kts 122°
2026-05-06 16:46 25.25806 55.34828 21 ft 16 kts 121°
2026-05-06 16:46 25.25751 55.34929 21 ft 15 kts 121°
2026-05-06 16:46 25.25775 55.35017 20 ft 14 kts 35°
2026-05-06 16:46 25.25854 55.35071 21 ft 13 kts 31°
2026-05-06 16:47 25.25930 55.35122 20 ft 13 kts 31°
2026-05-06 16:47 25.26004 55.35172 20 ft 12 kts 31°
2026-05-06 16:47 25.26077 55.35220 20 ft 12 kts 31°
2026-05-06 16:47 25.26124 55.35288 20 ft 12 kts 95°
2026-05-06 16:48 25.26082 55.35371 21 ft 13 kts 123°
2026-05-06 16:48 25.26029 55.35462 20 ft 15 kts 122°
2026-05-06 16:48 25.25975 55.35564 21 ft 16 kts 121°
2026-05-06 16:48 25.25915 55.35673 20 ft 17 kts 121°
2026-05-06 16:49 25.25851 55.35786 20 ft 17 kts 122°
2026-05-06 16:49 25.25790 55.35898 20 ft 17 kts 122°
2026-05-06 16:49 25.25726 55.36013 23 ft 18 kts 121°
2026-05-06 16:49 25.25659 55.36134 21 ft 19 kts 121°
2026-05-06 16:50 25.25590 55.36260 22 ft 20 kts 121°
2026-05-06 16:50 25.25517 55.36390 22 ft 20 kts 122°
2026-05-06 16:50 25.25446 55.36516 22 ft 19 kts 122°
2026-05-06 16:50 25.25400 55.36600 21 ft 19 kts 121°
2026-05-06 16:51 25.25305 55.36773 23 ft 20 kts 121°
2026-05-06 16:51 25.25230 55.36907 22 ft 21 kts 122°
2026-05-06 16:51 25.25156 55.37041 22 ft 20 kts 121°
2026-05-06 16:51 25.25098 55.37145 25 ft 14 kts 121°
2026-05-06 16:52 25.25050 55.37233 26 ft 13 kts 122°
2026-05-06 16:52 25.25003 55.37316 27 ft 13 kts 121°
2026-05-06 16:52 25.24958 55.37399 29 ft 12 kts 121°
2026-05-06 16:52 25.24912 55.37482 31 ft 13 kts 121°
2026-05-06 16:53 25.24861 55.37574 31 ft 15 kts 122°
2026-05-06 16:53 25.24804 55.37675 35 ft 16 kts 122°
2026-05-06 16:53 25.24744 55.37783 37 ft 17 kts 121°
2026-05-06 16:53 25.24687 55.37886 40 ft 11 kts 121°
2026-05-06 16:54 25.24679 55.37955 39 ft 8 kts 57°
2026-05-06 16:54 25.24701 55.37973 41 ft 2 kts 31°
2026-05-06 16:54 25.24702 55.37974 41 ft 0 kts 31°
2026-05-06 16:56 25.24710 55.37979 38 ft 3 kts 31°
2026-05-06 16:56 25.24742 55.38002 41 ft 8 kts 32°
2026-05-06 16:56 25.24801 55.38033 41 ft 11 kts 354°
2026-05-06 16:56 25.24847 55.37963 39 ft 14 kts 301°
2026-05-06 16:57 25.24973 55.37736 34 ft 70 kts 301°
2026-05-06 16:57 25.25358 55.37042 23 ft 140 kts 301°
2026-05-06 16:57 25.25961 55.35951 165 ft 183 kts 302°
2026-05-06 16:57 25.26679 55.34698 666 ft 207 kts 303°
2026-05-06 16:58 25.27462 55.33293 1137 ft 220 kts 303°
2026-05-06 16:58 25.28271 55.31822 1691 ft 228 kts 303°
2026-05-06 16:58 25.29043 55.30273 2254 ft 234 kts 289°
2026-05-06 16:58 25.29100 55.28487 2805 ft 240 kts 255°
2026-05-06 16:59 25.28495 55.26781 3417 ft 240 kts 245°
2026-05-06 16:59 25.27805 55.25200 3899 ft 217 kts 244°
2026-05-06 16:59 25.27174 55.23766 3935 ft 200 kts 245°
2026-05-06 16:59 25.26682 55.22379 3907 ft 190 kts 265°
2026-05-06 17:00 25.26453 55.20956 3943 ft 195 kts 242°
2026-05-06 17:00 25.25668 55.19630 4231 ft 219 kts 239°
2026-05-06 17:00 25.24860 55.18102 4443 ft 240 kts 234°
2026-05-06 17:00 25.23534 55.16949 4868 ft 251 kts 201°
2026-05-06 17:01 25.21793 55.16679 5355 ft 258 kts 178°
2026-05-06 17:01 25.19987 55.16857 5933 ft 263 kts 165°
2026-05-06 17:01 25.18399 55.17802 6545 ft 264 kts 136°
2026-05-06 17:01 25.17304 55.19413 6922 ft 265 kts 118°
2026-05-06 17:02 25.16454 55.21217 6990 ft 264 kts 116°
2026-05-06 17:02 25.15622 55.23017 6992 ft 263 kts 117°
2026-05-06 17:02 25.14776 55.24820 7007 ft 267 kts 117°
2026-05-06 17:02 25.13907 55.26648 7011 ft 270 kts 117°
2026-05-06 17:03 25.13031 55.28484 6987 ft 273 kts 117°
2026-05-06 17:03 25.12108 55.30405 7002 ft 289 kts 117°
2026-05-06 17:03 25.11163 55.32370 7013 ft 292 kts 118°
2026-05-06 17:03 25.10243 55.34377 7014 ft 294 kts 115°
2026-05-06 17:04 25.09402 55.36428 7009 ft 292 kts 114°
2026-05-06 17:04 25.08577 55.38467 7055 ft 294 kts 114°
2026-05-06 17:04 25.07731 55.40540 7656 ft 297 kts 114°
2026-05-06 17:04 25.07161 55.41940 7805 ft 305 kts 113°
2026-05-06 17:05 25.06076 55.44741 8238 ft 291 kts 112°
2026-05-06 17:05 25.05292 55.46799 8656 ft 292 kts 112°
2026-05-06 17:05 25.04497 55.48878 9191 ft 296 kts 112°
2026-05-06 17:05 25.03960 55.50276 9550 ft 300 kts 113°
2026-05-06 17:06 25.03140 55.52404 9948 ft 305 kts 113°
2026-05-06 17:06 25.02311 55.54555 10146 ft 304 kts 113°
2026-05-06 17:06 25.01389 55.56665 10531 ft 311 kts 119°
2026-05-06 17:06 25.00259 55.58770 10931 ft 326 kts 122°
2026-05-06 17:07 24.99046 55.60934 11328 ft 339 kts 122°
2026-05-06 17:07 24.97796 55.63182 11848 ft 347 kts 121°
2026-05-06 17:07 24.96538 55.65481 12358 ft 355 kts 121°
2026-05-06 17:07 24.95263 55.67832 12887 ft 359 kts 121°
2026-05-06 17:08 24.93969 55.70206 13413 ft 364 kts 122°
2026-05-06 17:08 24.92542 55.72497 13909 ft 368 kts 126°
2026-05-06 17:08 24.90993 55.74791 14391 ft 371 kts 127°
2026-05-06 17:08 24.89433 55.77071 14855 ft 375 kts 127°
2026-05-06 17:09 24.87866 55.79388 15275 ft 379 kts 126°
2026-05-06 17:09 24.86304 55.81728 15676 ft 380 kts 126°
2026-05-06 17:09 24.84737 55.84089 16078 ft 382 kts 126°
2026-05-06 17:09 24.83162 55.86454 16503 ft 384 kts 126°
2026-05-06 17:10 24.81588 55.88788 16923 ft 387 kts 127°
2026-05-06 17:10 24.79974 55.91174 17347 ft 390 kts 126°
2026-05-06 17:10 24.78345 55.93573 17781 ft 393 kts 128°
2026-05-06 17:10 24.76498 55.95809 18206 ft 396 kts 136°
2026-05-06 17:11 24.74454 55.97845 18598 ft 398 kts 139°
2026-05-06 17:11 24.72385 55.99857 19117 ft 395 kts 138°
2026-05-06 17:11 24.70378 56.01871 19897 ft 386 kts 137°
2026-05-06 17:11 24.68385 56.03910 19953 ft 401 kts 137°
2026-05-06 17:12 24.66363 56.05989 20621 ft 393 kts 137°
2026-05-06 17:12 24.64365 56.08038 21168 ft 392 kts 137°
2026-05-06 17:12 24.62378 56.10073 21762 ft 389 kts 137°
2026-05-06 17:12 24.60405 56.12090 22365 ft 387 kts 137°
2026-05-06 17:13 24.58447 56.14102 22971 ft 384 kts 137°
2026-05-06 17:13 24.56549 56.16146 23556 ft 381 kts 133°
2026-05-06 17:13 24.54753 56.18359 23532 ft 397 kts 131°
2026-05-06 17:13 24.52927 56.20708 23529 ft 411 kts 131°
2026-05-06 17:14 24.51061 56.23133 23500 ft 418 kts 130°
2026-05-06 17:14 24.49183 56.25567 23487 ft 417 kts 131°
2026-05-06 17:14 24.47305 56.27983 23488 ft 417 kts 131°
2026-05-06 17:14 24.45411 56.30405 23794 ft 419 kts 131°
2026-05-06 17:15 24.43511 56.32825 24283 ft 417 kts 132°
2026-05-06 17:15 24.41606 56.35247 24128 ft 417 kts 131°
2026-05-06 17:15 24.39718 56.37645 24208 ft 417 kts 132°
2026-05-06 17:15 24.37815 56.40060 24601 ft 417 kts 132°
2026-05-06 17:16 24.35926 56.42458 24790 ft 417 kts 132°
2026-05-06 17:16 24.34036 56.44855 24788 ft 413 kts 132°
2026-05-06 17:16 24.32166 56.47226 24785 ft 410 kts 132°
2026-05-06 17:16 24.30306 56.49585 24791 ft 408 kts 131°
2026-05-06 17:17 24.28530 56.52023 24792 ft 409 kts 128°
2026-05-06 17:17 24.26843 56.54539 24794 ft 410 kts 127°
2026-05-06 17:17 24.25186 56.57079 24794 ft 410 kts 126°
2026-05-06 17:17 24.23532 56.59623 24799 ft 410 kts 126°
2026-05-06 17:18 24.21893 56.62131 24797 ft 410 kts 127°
2026-05-06 17:18 24.20224 56.64667 24800 ft 410 kts 127°
2026-05-06 17:18 24.18549 56.67198 24810 ft 410 kts 127°
2026-05-06 17:18 24.16872 56.69724 24812 ft 410 kts 127°
2026-05-06 17:19 24.15201 56.72237 24781 ft 405 kts 127°
2026-05-06 17:19 24.13550 56.74718 24478 ft 401 kts 127°
2026-05-06 17:19 24.11908 56.77185 24026 ft 401 kts 127°
2026-05-06 17:19 24.10257 56.79663 23479 ft 404 kts 127°
2026-05-06 17:20 24.08597 56.82154 22843 ft 406 kts 126°
2026-05-06 17:20 24.06927 56.84659 22220 ft 408 kts 126°
2026-05-06 17:20 24.05256 56.87165 21618 ft 408 kts 126°
2026-05-06 17:20 24.03584 56.89668 21070 ft 407 kts 126°
2026-05-06 17:21 24.01910 56.92162 20535 ft 406 kts 126°
2026-05-06 17:21 24.00237 56.94650 19936 ft 406 kts 126°
2026-05-06 17:21 23.98562 56.97139 19351 ft 406 kts 126°
2026-05-06 17:21 23.96894 56.99617 18874 ft 403 kts 125°
2026-05-06 17:22 23.95247 57.02065 18576 ft 397 kts 125°
2026-05-06 17:22 23.93619 57.04485 18265 ft 395 kts 125°
2026-05-06 17:22 23.91976 57.06926 17942 ft 403 kts 125°
2026-05-06 17:22 23.90304 57.09409 17598 ft 408 kts 125°
2026-05-06 17:23 23.88621 57.11906 17234 ft 408 kts 125°
2026-05-06 17:23 23.86971 57.14358 16880 ft 402 kts 125°
2026-05-06 17:23 23.85338 57.16786 16527 ft 394 kts 124°
2026-05-06 17:23 23.83742 57.19159 16179 ft 386 kts 124°
2026-05-06 17:24 23.82168 57.21498 15836 ft 379 kts 124°
2026-05-06 17:24 23.80620 57.23799 15497 ft 372 kts 124°
2026-05-06 17:24 23.79101 57.26057 15170 ft 366 kts 124°
2026-05-06 17:24 23.77605 57.28280 14835 ft 360 kts 124°
2026-05-06 17:25 23.76130 57.30469 14514 ft 355 kts 124°
2026-05-06 17:25 23.74674 57.32628 14190 ft 351 kts 124°
2026-05-06 17:25 23.73278 57.34794 13867 ft 347 kts 118°
2026-05-06 17:25 23.72258 57.37150 13549 ft 342 kts 108°
2026-05-06 17:26 23.71651 57.39646 13188 ft 338 kts 98°
2026-05-06 17:26 23.71271 57.42170 12847 ft 337 kts 97°
2026-05-06 17:26 23.70924 57.44694 12499 ft 336 kts 97°
2026-05-06 17:26 23.70585 57.47205 12155 ft 335 kts 97°
2026-05-06 17:27 23.70241 57.49711 11843 ft 333 kts 97°
2026-05-06 17:27 23.69894 57.52209 11531 ft 333 kts 97°
2026-05-06 17:27 23.69542 57.54707 11224 ft 334 kts 97°
2026-05-06 17:27 23.69185 57.57216 10922 ft 335 kts 98°
2026-05-06 17:28 23.68825 57.59728 10621 ft 336 kts 98°
2026-05-06 17:28 23.68461 57.62252 10322 ft 337 kts 98°
2026-05-06 17:28 23.68098 57.64765 10012 ft 331 kts 98°
2026-05-06 17:28 23.67746 57.67195 9698 ft 319 kts 98°
2026-05-06 17:29 23.67404 57.69549 9361 ft 309 kts 98°
2026-05-06 17:29 23.67073 57.71826 9037 ft 300 kts 98°
2026-05-06 17:29 23.66751 57.74040 8723 ft 291 kts 98°
2026-05-06 17:29 23.66437 57.76197 8436 ft 286 kts 98°
2026-05-06 17:30 23.66125 57.78338 8147 ft 285 kts 98°
2026-05-06 17:30 23.65824 57.80402 7868 ft 284 kts 99°
2026-05-06 17:30 23.65514 57.82526 7586 ft 283 kts 99°
2026-05-06 17:30 23.65204 57.84644 7312 ft 283 kts 99°
2026-05-06 17:31 23.64909 57.86661 7047 ft 282 kts 99°
2026-05-06 17:31 23.64602 57.88761 6764 ft 278 kts 99°
2026-05-06 17:31 23.64300 57.90822 6483 ft 273 kts 99°
2026-05-06 17:31 23.64003 57.92846 6198 ft 268 kts 99°
2026-05-06 17:32 23.63713 57.94822 5918 ft 269 kts 99°
2026-05-06 17:32 23.63412 57.96869 5667 ft 270 kts 99°
2026-05-06 17:32 23.63113 57.98895 5428 ft 270 kts 99°
2026-05-06 17:32 23.62821 58.00880 5189 ft 268 kts 99°
2026-05-06 17:33 23.62527 58.02878 4948 ft 266 kts 99°
2026-05-06 17:33 23.62235 58.04855 4707 ft 263 kts 99°
2026-05-06 17:33 23.61946 58.06813 4473 ft 260 kts 99°
2026-05-06 17:33 23.61659 58.08753 4227 ft 258 kts 99°
2026-05-06 17:34 23.61375 58.10676 3989 ft 256 kts 99°
2026-05-06 17:34 23.61087 58.12617 3740 ft 255 kts 99°
2026-05-06 17:34 23.60810 58.14493 3598 ft 253 kts 99°
2026-05-06 17:34 23.60528 58.16388 3487 ft 254 kts 99°
2026-05-06 17:35 23.60246 58.18294 3368 ft 255 kts 99°
2026-05-06 17:35 23.59960 58.20215 3263 ft 258 kts 100°
2026-05-06 17:35 23.59673 58.22149 3150 ft 259 kts 100°
2026-05-06 17:36 23.59097 58.26013 3000 ft 256 kts 100°
2026-05-06 17:36 23.58831 58.27925 2991 ft 255 kts 94°
2026-05-06 17:36 23.59147 58.29816 2996 ft 255 kts 68°
2026-05-06 17:36 23.59950 58.31512 2991 ft 248 kts 61°
2026-05-06 17:37 23.60861 58.33066 2983 ft 239 kts 57°
2026-05-06 17:37 23.61778 58.34527 2979 ft 227 kts 57°
2026-05-06 17:37 23.62652 58.35904 2997 ft 218 kts 57°
2026-05-06 17:37 23.63517 58.37256 2993 ft 216 kts 56°
2026-05-06 17:38 23.64382 58.38602 2993 ft 217 kts 56°
2026-05-06 17:38 23.65248 58.39950 2989 ft 217 kts 56°
2026-05-06 17:38 23.66114 58.41296 2992 ft 217 kts 56°
2026-05-06 17:38 23.66983 58.42648 2990 ft 218 kts 57°
2026-05-06 17:39 23.67852 58.44001 2993 ft 218 kts 56°
2026-05-06 17:39 23.68717 58.45352 2990 ft 217 kts 57°
2026-05-06 17:39 23.69581 58.46703 3004 ft 217 kts 57°
2026-05-06 17:39 23.70404 58.48072 2984 ft 214 kts 69°
2026-05-06 17:40 23.70465 58.49608 2994 ft 205 kts 113°
2026-05-06 17:40 23.69528 58.50726 3002 ft 203 kts 157°
2026-05-06 17:40 23.68178 58.50790 2999 ft 198 kts 201°
2026-05-06 17:40 23.66998 58.50029 3003 ft 197 kts 211°
2026-05-06 17:41 23.65855 58.49221 2996 ft 195 kts 212°
2026-05-06 17:41 23.64724 58.48415 2994 ft 194 kts 211°
2026-05-06 17:41 23.63599 58.47610 2994 ft 193 kts 211°
2026-05-06 17:41 23.62643 58.46587 2814 ft 198 kts 246°
2026-05-06 17:42 23.62346 58.45154 2615 ft 191 kts 256°
2026-05-06 17:42 23.62096 58.43765 2405 ft 184 kts 259°
2026-05-06 17:42 23.61936 58.42402 2203 ft 179 kts 262°
2026-05-06 17:42 23.61820 58.41075 1956 ft 172 kts 263°
2026-05-06 17:43 23.61718 58.39810 1740 ft 164 kts 263°
2026-05-06 17:43 23.61618 58.38573 1563 ft 165 kts 263°
2026-05-06 17:43 23.61518 58.37341 1352 ft 165 kts 263°
2026-05-06 17:43 23.61419 58.36109 1170 ft 161 kts 263°
2026-05-06 17:44 23.61321 58.34894 990 ft 160 kts 264°
2026-05-06 17:44 23.61224 58.33689 799 ft 159 kts 265°
2026-05-06 17:44 23.61129 58.32499 591 ft 156 kts 265°
2026-05-06 17:44 23.61033 58.31329 379 ft 153 kts 265°
2026-05-06 17:45 23.60944 58.30187 181 ft 150 kts 265°
2026-05-06 17:45 23.60857 58.29062 42 ft 143 kts 266°
2026-05-06 17:45 23.60778 58.28110 32 ft 100 kts 265°
2026-05-06 17:45 23.60737 58.27590 32 ft 38 kts 265°
2026-05-06 17:46 23.60720 58.27381 34 ft 24 kts 265°
2026-05-06 17:46 23.60703 58.27205 33 ft 23 kts 256°
2026-05-06 17:46 23.60650 58.27045 36 ft 22 kts 240°
2026-05-06 17:46 23.60563 58.26911 34 ft 22 kts 233°
2026-05-06 17:47 23.60492 58.26799 34 ft 17 kts 225°
2026-05-06 17:47 23.60400 58.26810 33 ft 17 kts 91°
2026-05-06 17:47 23.60412 58.26938 33 ft 17 kts 82°
2026-05-06 17:47 23.60434 58.27067 33 ft 18 kts 82°
2026-05-06 17:48 23.60444 58.27199 33 ft 17 kts 81°
2026-05-06 17:48 23.60456 58.27328 33 ft 17 kts 86°
2026-05-06 17:48 23.60464 58.27457 33 ft 17 kts 85°
2026-05-06 17:48 23.60475 58.27593 32 ft 19 kts 84°
2026-05-06 17:49 23.60477 58.27733 33 ft 18 kts 117°
2026-05-06 17:49 23.60396 58.27841 33 ft 19 kts 130°
2026-05-06 17:49 23.60326 58.27957 33 ft 18 kts 93°
2026-05-06 17:49 23.60332 58.28092 33 ft 18 kts 89°
2026-05-06 17:50 23.60246 58.28151 33 ft 14 kts 178°
2026-05-06 17:50 23.60180 58.28158 33 ft 7 kts 175°
2026-05-06 17:50 23.60166 58.28159 33 ft 2 kts 175°
2026-05-06 17:50 23.60149 58.28161 33 ft 3 kts 175°
2026-05-06 17:51 23.60137 58.28162 33 ft 0 kts 175°